sat.trackr.live / text

‹ back to catalog

STARLINK-11190 [DTC]

NORAD 60911 · 2024-154J

PAYLOAD ACTIVE UNKNOWN

§ Identity

Operator
Country
US
Launch date
2024-08-31
Launch site
AFETR
Launch vehicle
Mass (kg)
RCS (m²)

Purposes: comms

External: N2YO · Heavens-Above · Gunter

§ Orbital elements

Epoch: 2026-09-21T03:38:55.954464Z

Period
91.74 min
Inclination
53.1565°
Eccentricity
0.0000728
Mean motion
15.69710812 rev/d
Perigee alt
359.2 km
Apogee alt
360.2 km
Semi-major
6,737.9 km
B*
5.3366e-6
RAAN
247.7224°
Arg perigee
81.2442°
Mean anomaly
278.8659°
Rev number
11,920

§ Raw data

STARLINK-11190 [DTC]1 60911U 24154J   26264.15203651  .00000059  00000+0  53366-5 0  99972 60911  53.1565 247.7224 0000728  81.2442 278.8659 15.69710812119208

JSON: /api/v1/satellites/60911 · /tle

For live sub-satellite position, see the globe view (requires WebGL).

§ Visibility from observer

Set your observer location to see the next 7 days of passes ≥ 10°. The values pass through the URL so the page stays shareable.

No JS? Fill the form by hand. The geolocation button needs JavaScript.